GW3834 Weather Reports


time (UTC)temp
C
wind
direction
speed
KPH
gust
KPH
rain 1hr
cm
rain 24hr
cm
rain mn
cm
humidity
%
barometer
mb
20260503013039 16 60 0.0 3.2 0.00 0.00 0.00 43 1016.8
20260503011538 17 90 0.0 4.8 0.00 0.00 0.00 40 1017.0
20260503010037 16 63 3.2 8.0 0.00 0.00 0.00 40 1017.0
20260503004536 16 46 4.8 9.7 0.00 0.00 0.00 41 1017.2
20260503003034 17 346 3.2 11.3 0.00 0.00 0.00 40 1017.3
20260503001536 16 18 8.0 12.9 0.00 0.00 0.00 41 1017.5
20260503000033 17 290 4.8 8.0 0.00 0.00 0.00 39 1017.6
20260502234537 18 241 1.6 11.3 0.00 0.00 0.00 38 1017.6
20260502233031 17 29 3.2 11.3 0.00 0.00 0.00 40 1017.7
20260502231530 17 217 1.6 8.0 0.00 0.00 0.00 38 1017.9
20260502230030 17 101 1.6 9.7 0.00 0.00 0.00 38 1018.1
20260502224528 17 307 0.0 11.3 0.00 0.00 0.00 40 1018.2
20260502223027 17 40 3.2 16.1 0.00 0.00 0.00 40 1018.4
20260502221526 17 293 3.2 8.0 0.00 0.00 0.00 38 1018.6
20260502220031 16 48 3.2 12.9 0.00 0.00 0.00 40 1018.8
20260502214525 17 323 9.7 19.3 0.00 0.00 0.00 39 1019.1
20260502213030 16 324 9.7 0.0 0.00 0.00 0.00 40 1019.3
20260502211524 16 289 3.2 9.7 0.00 0.00 0.00 42 1019.4
20260502210024 16 250 4.8 19.3 0.00 0.00 0.00 39 1019.6
20260502204523 17 283 6.4 14.5 0.00 0.00 0.00 40 1019.6
20260502203022 16 330 4.8 17.7 0.00 0.00 0.00 41 1019.7
20260502201534 16 349 4.8 12.9 0.00 0.00 0.00 41 1019.9
20260502200023 16 8 4.8 17.7 0.00 0.00 0.00 39 1020.0
20260502194533 16 12 3.2 9.7 0.00 0.00 0.00 43 1020.1
20260502193018 16 219 1.6 12.9 0.00 0.00 0.00 42 1020.3
20260502191519 16 280 6.4 12.9 0.00 0.00 0.00 42 1020.6
20260502190014 15 33 6.4 14.5 0.00 0.00 0.00 46 1020.7
20260502184517 15 65 4.8 14.5 0.00 0.00 0.00 44 1020.7
20260502183012 14 11 4.8 20.9 0.00 0.00 0.00 47 1021.0
20260502181511 15 284 12.9 24.1 0.00 0.00 0.00 47 1020.9
20260502163002 13 309 12.9 19.3 0.00 0.00 0.00 55 1021.1
20260502161601 13 293 14.5 22.5 0.00 0.00 0.00 56 1021.1
20260502151556 11 303 16.1 24.1 0.00 0.00 0.00 58 1021.1
20260502123033 5 11 0.0 0.0 0.00 0.00 0.00 76 1020.1
20260502121532 4 11 0.0 1.6 0.00 0.00 0.00 76 1019.9
20260502114529 3 33 0.0 3.2 0.00 0.00 0.00 75 1019.7
20260502113027 4 359 0.0 0.0 0.00 0.00 0.00 75 1019.8
20260502111527 5 359 0.0 0.0 0.00 0.00 0.00 70 1019.7
20260502110024 5 359 0.0 1.6 0.00 0.00 0.00 72 1019.7
20260502104521 5 15 0.0 1.6 0.00 0.00 0.00 72 1019.6
20260502103019 5 356 0.0 3.2 0.00 0.00 0.00 73 1019.2
20260502101516 6 359 0.0 3.2 0.00 0.00 0.00 67 1019.0
20260502091507 6 283 0.0 1.6 0.00 0.00 0.00 65 1018.3
20260502070055 8 86 0.0 6.4 0.00 0.00 0.00 51 1016.5
20260502064549 8 43 3.2 6.4 0.00 0.00 0.00 55 1016.6
20260502063047 8 30 1.6 3.2 0.00 0.00 0.00 52 1016.7
20260502061543 9 64 1.6 3.2 0.00 0.00 0.00 50 1016.7
20260502060040 8 52 1.6 3.2 0.00 0.00 0.00 55 1016.8
20260502054539 7 34 0.0 3.2 0.00 0.00 0.00 56 1016.8
20260502053042 8 48 0.0 1.6 0.00 0.00 0.00 52 1016.7
20260502051539 6 23 1.6 9.7 0.00 0.00 0.00 66 1016.8
20260502050038 7 236 0.0 3.2 0.00 0.00 0.00 61 1016.7
20260502044542 7 27 1.6 4.8 0.00 0.00 0.00 55 1016.7
20260502043044 8 60 0.0 1.6 0.00 0.00 0.00 55 1016.6
20260502041545 8 63 0.0 3.2 0.00 0.00 0.00 54 1016.5
20260502040036 8 19 0.0 1.6 0.00 0.00 0.00 54 1016.4
20260502034539 9 19 0.0 3.2 0.00 0.00 0.00 53 1016.3
20260502033037 10 148 0.0 1.6 0.00 0.00 0.00 52 1016.2
20260502031535 10 151 0.0 6.4 0.00 0.00 0.00 53 1016.1
20260502030034 11 329 0.0 1.6 0.00 0.00 0.00 46 1015.9
20260502024539 11 351 0.0 1.6 0.00 0.00 0.00 54 1015.8
20260502023033 12 352 0.0 0.0 0.00 0.00 0.00 53 1015.7
20260502021533 13 326 0.0 0.0 0.00 0.00 0.00 51 1015.6
20260502020032 15 8 1.6 3.2 0.00 0.00 0.00 46 1015.5
20260502014549 16 51 1.6 4.8 0.00 0.00 0.00 42 1015.4